Satellite-Ground Cal/Val Site Overpasses Predictions

Prediction of Satellite NPP Overpassing Cal/Val Site: Antarctic Dome C

Ground Cal/Val Site Location: Latitude: -75.10, Longitude: 123.35; Satellite-Ground Site NADIR distance within 100 km.

Table of predicted overpasses for the next 14.0 days since TLE Epoch: 12/12/2020
Interval Starting Time Ending Time Minimum Distance Time Minimum Distance (km)
1 12/12/2020 15:00:42 12/12/2020 15:01:06 12/12/2020 15:00:54 55.70
2 12/13/2020 14:41:53 12/13/2020 14:42:18 12/13/2020 14:42:06 53.38
3 12/14/2020 07:43:35 12/14/2020 07:43:55 12/14/2020 07:43:45 70.60
4 12/15/2020 07:24:42 12/15/2020 07:25:09 12/15/2020 07:24:55 37.41
5 12/17/2020 15:07:08 12/17/2020 15:07:18 12/17/2020 15:07:13 93.66
6 12/18/2020 14:48:09 12/18/2020 14:48:38 12/18/2020 14:48:24 17.48
7 12/20/2020 07:30:59 12/20/2020 07:31:28 12/20/2020 07:31:14 1.83
8 12/23/2020 14:54:27 12/23/2020 14:54:55 12/23/2020 14:54:41 19.21
9 12/24/2020 14:35:46 12/24/2020 14:35:59 12/24/2020 14:35:53 87.70
